STF904 VTBD-VTSM

Flight info

Callsign STF904
Flight time 0h 45m
Altitude 36000
Route KASNI3C KASNI M757 MABKO W33 UPNEP
Aircraft B738/M-SDE2E3FGHIRWXY/LB1

Departure

Time 2026-04-28 15:47
Airport Don Mueang International Airport (VTBD)

Arrival

Time 2026-04-28 16:33
Airport Samui International Airport (VTSM)
Time Latitude Longitude Altitude Speed Heading
2026-04-28 15:47 13.87641 100.57574 3072 ft 231 kts 254°
2026-04-28 15:47 13.87286 100.55900 3806 ft 250 kts 256°
2026-04-28 15:47 13.86735 100.54115 4582 ft 267 kts 248°
2026-04-28 15:47 13.85972 100.52355 5499 ft 276 kts 244°
2026-04-28 15:48 13.85125 100.50567 6501 ft 282 kts 244°
2026-04-28 15:48 13.84263 100.48749 7578 ft 285 kts 242°
2026-04-28 15:48 13.83270 100.47143 8520 ft 290 kts 232°
2026-04-28 15:48 13.81891 100.45563 9184 ft 310 kts 225°
2026-04-28 15:49 13.80287 100.43973 9670 ft 331 kts 223°
2026-04-28 15:49 13.78396 100.42602 10142 ft 330 kts 203°
2026-04-28 15:49 13.76154 100.42175 10620 ft 332 kts 176°
2026-04-28 15:49 13.73939 100.42885 11099 ft 334 kts 148°
2026-04-28 15:50 13.71921 100.44074 11432 ft 338 kts 159°
2026-04-28 15:50 13.69699 100.44898 11904 ft 338 kts 161°
2026-04-28 15:50 13.67478 100.45704 12374 ft 341 kts 161°
2026-04-28 15:50 13.65214 100.46546 12870 ft 342 kts 160°
2026-04-28 15:51 13.62950 100.47398 13345 ft 347 kts 160°
2026-04-28 15:51 13.60635 100.48271 13817 ft 348 kts 160°
2026-04-28 15:51 13.58362 100.49124 14274 ft 349 kts 160°
2026-04-28 15:51 13.56036 100.49993 14738 ft 351 kts 160°
2026-04-28 15:52 13.53728 100.50848 15196 ft 353 kts 161°
2026-04-28 15:52 13.51405 100.51712 15655 ft 355 kts 160°
2026-04-28 15:52 13.49051 100.52589 16110 ft 357 kts 160°
2026-04-28 15:52 13.46705 100.53464 16570 ft 359 kts 160°
2026-04-28 15:53 13.44349 100.54341 17024 ft 360 kts 160°
2026-04-28 15:53 13.41985 100.55222 17473 ft 362 kts 160°
2026-04-28 15:53 13.39553 100.56126 17948 ft 364 kts 160°
2026-04-28 15:53 13.37155 100.57018 18383 ft 367 kts 160°
2026-04-28 15:54 13.34728 100.57919 18855 ft 369 kts 160°
2026-04-28 15:54 13.32299 100.58822 19306 ft 372 kts 160°
2026-04-28 15:54 13.29845 100.59733 19750 ft 373 kts 160°
2026-04-28 15:54 13.27375 100.60650 20206 ft 375 kts 160°
2026-04-28 15:55 13.24869 100.61580 20660 ft 378 kts 160°
2026-04-28 15:55 13.22393 100.62499 21099 ft 380 kts 160°
2026-04-28 15:55 13.19877 100.63432 21534 ft 382 kts 160°
2026-04-28 15:55 13.17363 100.64365 21971 ft 384 kts 160°
2026-04-28 15:56 13.14833 100.65304 22445 ft 386 kts 160°
2026-04-28 15:56 13.12246 100.66263 22880 ft 392 kts 160°
2026-04-28 15:56 13.09647 100.67157 23305 ft 396 kts 163°
2026-04-28 15:56 13.07082 100.67769 23703 ft 401 kts 171°
2026-04-28 15:57 13.04298 100.68012 24123 ft 405 kts 178°
2026-04-28 15:57 13.01451 100.67989 24537 ft 410 kts 181°
2026-04-28 15:57 12.98552 100.67849 24948 ft 414 kts 182°
2026-04-28 15:57 12.95662 100.67690 25353 ft 418 kts 182°
2026-04-28 15:58 12.92734 100.67544 25752 ft 423 kts 182°
2026-04-28 15:58 12.89786 100.67420 26145 ft 427 kts 181°
2026-04-28 15:58 12.86766 100.67313 26555 ft 431 kts 181°
2026-04-28 15:58 12.83763 100.67219 26942 ft 434 kts 181°
2026-04-28 15:59 12.80736 100.67132 27332 ft 438 kts 180°
2026-04-28 15:59 12.77632 100.67047 27721 ft 441 kts 180°
2026-04-28 15:59 12.74541 100.66965 28106 ft 444 kts 180°
2026-04-28 15:59 12.71426 100.66883 28485 ft 447 kts 180°
2026-04-28 16:00 12.68306 100.66801 28864 ft 450 kts 180°
2026-04-28 16:00 12.65143 100.66719 29244 ft 453 kts 180°
2026-04-28 16:00 12.61974 100.66637 29625 ft 455 kts 180°
2026-04-28 16:00 12.58773 100.66553 30005 ft 458 kts 180°
2026-04-28 16:01 12.55557 100.66469 30378 ft 458 kts 180°
2026-04-28 16:01 12.52357 100.66385 30752 ft 457 kts 180°
2026-04-28 16:01 12.49197 100.66303 31130 ft 455 kts 180°
2026-04-28 16:01 12.46012 100.66218 31512 ft 453 kts 180°
2026-04-28 16:02 12.42862 100.66135 31888 ft 451 kts 180°
2026-04-28 16:02 12.39704 100.66052 32272 ft 448 kts 180°
2026-04-28 16:02 12.36556 100.65970 32652 ft 447 kts 180°
2026-04-28 16:02 12.33444 100.65889 33037 ft 445 kts 180°
2026-04-28 16:03 12.30331 100.65807 33426 ft 444 kts 180°
2026-04-28 16:03 12.27239 100.65727 33812 ft 443 kts 180°
2026-04-28 16:03 12.24141 100.65646 34194 ft 442 kts 180°
2026-04-28 16:03 12.21038 100.65565 34579 ft 441 kts 180°
2026-04-28 16:04 12.17965 100.65485 34961 ft 439 kts 180°
2026-04-28 16:04 12.14905 100.65406 35350 ft 437 kts 180°
2026-04-28 16:04 12.11832 100.65326 35733 ft 435 kts 180°
2026-04-28 16:04 12.08788 100.65247 35894 ft 437 kts 180°
2026-04-28 16:05 12.02699 100.65089 35925 ft 431 kts 180°
2026-04-28 16:05 11.96682 100.64936 35926 ft 429 kts 180°
2026-04-28 16:06 11.90647 100.64784 35925 ft 430 kts 180°
2026-04-28 16:06 11.84663 100.64634 35926 ft 430 kts 180°
2026-04-28 16:07 11.78660 100.64482 35924 ft 429 kts 180°
2026-04-28 16:08 11.69584 100.64253 35925 ft 430 kts 180°
2026-04-28 16:08 11.63553 100.64101 35925 ft 430 kts 180°
2026-04-28 16:09 11.54503 100.63872 35926 ft 431 kts 180°
2026-04-28 16:10 11.45433 100.63644 35926 ft 430 kts 180°
2026-04-28 16:10 11.36380 100.63415 35925 ft 430 kts 180°
2026-04-28 16:11 11.24329 100.63111 35925 ft 430 kts 180°
2026-04-28 16:12 11.15267 100.62882 35926 ft 430 kts 180°
2026-04-28 16:13 11.06220 100.62656 35926 ft 430 kts 180°
2026-04-28 16:14 10.94224 100.62354 35553 ft 430 kts 180°
2026-04-28 16:14 10.88435 100.62209 34695 ft 435 kts 180°
2026-04-28 16:15 10.82147 100.62051 33324 ft 438 kts 180°
2026-04-28 16:15 10.79096 100.61975 32607 ft 437 kts 180°
2026-04-28 16:15 10.76100 100.61899 32013 ft 435 kts 180°
2026-04-28 16:16 10.69939 100.61746 29793 ft 450 kts 180°
2026-04-28 16:16 10.66779 100.61668 28747 ft 454 kts 180°
2026-04-28 16:17 10.60581 100.60438 26845 ft 458 kts 202°
2026-04-28 16:17 10.57706 100.58974 25878 ft 458 kts 208°
2026-04-28 16:17 10.54982 100.57341 24721 ft 459 kts 210°
2026-04-28 16:17 10.52264 100.55637 23353 ft 449 kts 210°
2026-04-28 16:18 10.49685 100.54015 22281 ft 434 kts 210°
2026-04-28 16:18 10.47115 100.52426 21062 ft 424 kts 209°
2026-04-28 16:18 10.44625 100.50924 19818 ft 416 kts 208°
2026-04-28 16:18 10.42168 100.49472 18566 ft 408 kts 208°
2026-04-28 16:19 10.39735 100.48055 17282 ft 402 kts 208°
2026-04-28 16:19 10.37338 100.46671 16018 ft 395 kts 208°
2026-04-28 16:19 10.34971 100.45314 14880 ft 384 kts 208°
2026-04-28 16:19 10.32679 100.44008 13753 ft 375 kts 208°
2026-04-28 16:20 10.30440 100.42738 12566 ft 369 kts 208°
2026-04-28 16:20 10.28232 100.41489 11570 ft 357 kts 208°
2026-04-28 16:20 10.26143 100.40307 11215 ft 328 kts 208°
2026-04-28 16:20 10.24182 100.39197 10974 ft 320 kts 208°
2026-04-28 16:21 10.22253 100.38107 10400 ft 317 kts 208°
2026-04-28 16:21 10.20327 100.37019 9782 ft 311 kts 208°
2026-04-28 16:21 10.18476 100.35973 9501 ft 300 kts 208°
2026-04-28 16:21 10.16659 100.34946 9231 ft 289 kts 207°
2026-04-28 16:22 10.15134 100.34084 9005 ft 284 kts 207°
2026-04-28 16:22 10.13513 100.33170 8775 ft 282 kts 207°
2026-04-28 16:22 10.11524 100.32049 8492 ft 282 kts 207°
2026-04-28 16:22 10.09807 100.31081 8247 ft 281 kts 207°
2026-04-28 16:23 10.08090 100.30112 8007 ft 280 kts 207°
2026-04-28 16:23 10.06364 100.29139 7761 ft 279 kts 207°
2026-04-28 16:23 10.04676 100.28187 7522 ft 278 kts 207°
2026-04-28 16:23 10.02965 100.27222 7281 ft 277 kts 207°
2026-04-28 16:24 10.01290 100.26278 7043 ft 277 kts 207°
2026-04-28 16:24 9.99598 100.25325 6804 ft 276 kts 207°
2026-04-28 16:24 9.97916 100.24377 6566 ft 276 kts 207°
2026-04-28 16:24 9.96211 100.23416 6327 ft 274 kts 207°
2026-04-28 16:25 9.94548 100.22479 6090 ft 273 kts 207°
2026-04-28 16:25 9.92881 100.21540 5850 ft 272 kts 208°
2026-04-28 16:25 9.91215 100.20602 5612 ft 270 kts 208°
2026-04-28 16:25 9.89602 100.19693 5377 ft 270 kts 208°
2026-04-28 16:26 9.87960 100.18767 5138 ft 268 kts 208°
2026-04-28 16:26 9.86393 100.17885 4908 ft 267 kts 208°
2026-04-28 16:26 9.84937 100.17065 4632 ft 261 kts 208°
2026-04-28 16:26 9.84018 100.16548 4439 ft 259 kts 208°
2026-04-28 16:27 9.81880 100.15345 4004 ft 260 kts 209°
2026-04-28 16:27 9.80138 100.14365 3713 ft 253 kts 209°
2026-04-28 16:27 9.77308 100.12772 3573 ft 224 kts 210°
2026-04-28 16:28 9.75938 100.11999 3533 ft 230 kts 210°
2026-04-28 16:28 9.74534 100.11208 3432 ft 223 kts 210°
2026-04-28 16:28 9.73196 100.10473 3338 ft 212 kts 207°
2026-04-28 16:28 9.71916 100.09860 3116 ft 206 kts 205°
2026-04-28 16:29 9.69362 100.08725 2710 ft 192 kts 205°
2026-04-28 16:29 9.67004 100.07640 2391 ft 174 kts 205°
2026-04-28 16:30 9.65958 100.07159 2366 ft 158 kts 205°
2026-04-28 16:30 9.64919 100.06674 2089 ft 165 kts 205°
2026-04-28 16:30 9.63905 100.06198 1813 ft 157 kts 205°
2026-04-28 16:30 9.62891 100.05741 1601 ft 156 kts 201°
2026-04-28 16:31 9.61841 100.05471 1373 ft 157 kts 185°
2026-04-28 16:31 9.60744 100.05521 1140 ft 154 kts 172°
2026-04-28 16:31 9.59698 100.05716 987 ft 150 kts 169°
2026-04-28 16:31 9.58708 100.05864 667 ft 137 kts 173°
2026-04-28 16:32 9.57789 100.05953 439 ft 131 kts 174°
2026-04-28 16:32 9.55903 100.06139 128 ft 137 kts 175°
2026-04-28 16:32 9.55008 100.06223 56 ft 100 kts 173°
2026-04-28 16:33 9.54549 100.06268 55 ft 31 kts 174°
2026-04-28 16:33 9.54450 100.06278 58 ft 19 kts 174°
2026-04-28 16:33 9.54297 100.06292 65 ft 13 kts 175°
2026-04-28 16:33 9.54212 100.06300 70 ft 12 kts 175°
2026-04-28 16:34 9.54132 100.06308 74 ft 16 kts 174°
2026-04-28 16:34 9.54007 100.06316 78 ft 16 kts 191°
2026-04-28 16:34 9.53906 100.06306 78 ft 10 kts 170°
2026-04-28 16:34 9.53904 100.06335 77 ft 4 kts
2026-04-28 16:35 9.53908 100.06335 77 ft 0 kts 354°